Weather History for Pittsfield, MA

Change the Weather History Date:

Wednesday, July 24, 2013

  Actual Average Record
Temperature  
Mean Temperature 64 °F 68 °F  
Max Temperature 74 °F 79 °F 97 °F (1933)
Min Temperature 54 °F 57 °F 47 °F (1925)
Degree Days  
Heating Degree Days 1 1  
Month to date heating degree days 1 24  
Since 1 June heating degree days 109 125  
Since 1 July heating degree days 1 24  
Cooling Degree Days 0 4  
Month to date cooling degree days 220 85  
Year to date cooling degree days 331 154  
Since 1 June cooling degree days 306 141  
Growing Degree Days 15 (Base 50)    
Moisture  
Dew Point 61 °F    
Average Humidity 77    
Maximum Humidity 100    
Minimum Humidity 53    
Precipitation  
Precipitation 0.00 in 0.14 in 1.25 in (1956)
Month to date precipitation 1.18 3.11  
Year to date precipitation 23.14 24.55  
Sea Level Pressure  
Sea Level Pressure 29.70 in    
Wind  
Wind Speed 7 mph (WNW)    
Max Wind Speed 21 mph    
Max Gust Speed 26 mph    
Visibility 7 miles    
Events Fog    
T = Trace of Precipitation, MM = Missing Value Source: NWS Daily Summary

Daily Weather History Graph

Daily Weather History Graph

Search for Another Location

Airport:

Trip Planner

Search our weather history database for the weather conditions in past years. The results will help you decide how hot, cold, wet, or windy it might be!

Date:

Astronomy

Jul. 24, 2013 Rise Set
Actual Time 5:37 AM EDT 8:20 PM EDT
Civil Twilight 5:05 AM EDT 8:53 PM EDT
Nautical Twilight 4:23 AM EDT 9:34 PM EDT
Astronomical Twilight 3:36 AM EDT 10:21 PM EDT
Moon 9:20 PM EDT 7:58 AM EDT
Length of Visible Light 15h 48m
Length of Day
14h 43m
Waning Gibbous, 95% of the Moon is Illuminated
Jul 24
Waning Gibbous
Jul 29
Last Quarter
Aug 6
New
Aug 14
First Quarter
Aug 20
Full

Hourly Weather History & Observations

Time (EDT) Temp. Dew Point Humidity Pressure Visibility Wind Dir Wind Speed Gust Speed Precip Events Conditions
12:31 AM 66.2 °F 64.4 °F 94% 29.65 in 8.0 mi Calm Calm - N/A   Scattered Clouds
12:40 AM 66.2 °F 66.2 °F 100% 29.65 in 6.0 mi Calm Calm - N/A   Mostly Cloudy
12:54 AM 66.9 °F 66.0 °F 97% 29.57 in 2.5 mi Calm Calm - N/A   Overcast
1:01 AM 66.2 °F 66.2 °F 100% 29.65 in 0.8 mi Calm Calm - N/A   Overcast
1:08 AM 66.2 °F 66.2 °F 100% 29.65 in 0.2 mi Calm Calm - N/A Fog Fog
1:24 AM 66.2 °F 66.2 °F 100% 29.66 in 0.5 mi SW 3.5 mph - N/A Fog Fog
1:30 AM 68.0 °F 66.2 °F 94% 29.66 in 2.5 mi SW 4.6 mph - N/A   Overcast
1:37 AM 66.2 °F 66.2 °F 100% 29.65 in 4.0 mi Calm Calm - N/A   Overcast
1:54 AM 66.9 °F 66.0 °F 97% 29.58 in 6.0 mi SE 3.5 mph - N/A   Overcast
2:54 AM 66.9 °F 66.0 °F 97% 29.57 in 9.0 mi Calm Calm - N/A   Overcast
3:27 AM 66.2 °F 66.2 °F 100% 29.64 in 1.5 mi Calm Calm - N/A   Overcast
3:36 AM 66.2 °F 66.2 °F 100% 29.64 in 0.8 mi Calm Calm - N/A   Overcast
3:42 AM 66.2 °F 66.2 °F 100% 29.64 in 2.0 mi Calm Calm - N/A   Overcast
3:50 AM 66.2 °F 66.2 °F 100% 29.65 in 5.0 mi Calm Calm - N/A   Overcast
3:54 AM 66.9 °F 66.0 °F 97% 29.57 in 6.0 mi Calm Calm - N/A   Overcast
4:26 AM 66.2 °F 66.2 °F 100% 29.65 in 2.5 mi Calm Calm - N/A   Overcast
4:29 AM 66.2 °F 66.2 °F 100% 29.65 in 0.8 mi Calm Calm - N/A   Overcast
4:54 AM 66.0 °F 66.0 °F 100% 29.57 in 0.2 mi Calm Calm - N/A Fog Fog
5:01 AM 66.2 °F 66.2 °F 100% 29.65 in 0.2 mi Calm Calm - N/A Fog Fog
5:11 AM 66.2 °F 66.2 °F 100% 29.65 in 0.8 mi Calm Calm - N/A   Overcast
5:15 AM 66.2 °F 66.2 °F 100% 29.65 in 2.5 mi Calm Calm - N/A   Overcast
5:22 AM 66.2 °F 66.2 °F 100% 29.66 in 8.0 mi Calm Calm - N/A   Overcast
5:54 AM 66.9 °F 66.0 °F 97% 29.59 in 9.0 mi WNW 5.8 mph - N/A   Mostly Cloudy
6:45 AM 68.0 °F 64.4 °F 88% 29.69 in 6.0 mi NW 4.6 mph - N/A   Overcast
6:54 AM 68.0 °F 64.9 °F 90% 29.61 in 7.0 mi WNW 8.1 mph - N/A   Overcast
7:07 AM 68.0 °F 64.4 °F 88% 29.69 in 8.0 mi WNW 8.1 mph - N/A   Overcast
7:22 AM 68.0 °F 62.6 °F 83% 29.69 in 9.0 mi Variable 6.9 mph - N/A   Overcast
7:54 AM 68.0 °F 62.1 °F 81% 29.63 in 10.0 mi NW 8.1 mph 16.1 mph N/A   Mostly Cloudy
8:54 AM 66.9 °F 59.0 °F 76% 29.66 in 10.0 mi NNW 8.1 mph - N/A   Overcast
9:05 AM 66.2 °F 59.0 °F 78% 29.74 in 10.0 mi NW 8.1 mph - N/A   Overcast
9:22 AM 69.8 °F 60.8 °F 73% 29.74 in 10.0 mi WNW 9.2 mph - N/A   Overcast
9:54 AM 69.1 °F 59.0 °F 70% 29.68 in 10.0 mi NW 12.7 mph 20.7 mph N/A   Mostly Cloudy
10:54 AM 68.0 °F 57.0 °F 68% 29.72 in 10.0 mi NW 10.4 mph 19.6 mph N/A   Overcast
11:03 AM 68.0 °F 57.2 °F 68% 29.79 in 10.0 mi West 10.4 mph - N/A   Overcast
11:15 AM 68.0 °F 57.2 °F 68% 29.79 in 10.0 mi West 12.7 mph - N/A   Overcast
11:54 AM 71.1 °F 57.0 °F 61% 29.73 in 10.0 mi WNW 10.4 mph 19.6 mph N/A   Overcast
12:54 PM 70.0 °F 55.0 °F 59% 29.73 in 10.0 mi WNW 12.7 mph - N/A   Overcast
1:54 PM 72.0 °F 55.9 °F 57% 29.73 in 10.0 mi NW 13.8 mph 21.9 mph N/A   Overcast
2:54 PM 73.0 °F 55.9 °F 55% 29.74 in 10.0 mi WNW 12.7 mph 19.6 mph N/A   Partly Cloudy
3:54 PM 72.0 °F 54.0 °F 53% 29.75 in 10.0 mi NW 12.7 mph 18.4 mph N/A   Clear
4:54 PM 71.1 °F 54.0 °F 55% 29.77 in 10.0 mi WNW 10.4 mph - N/A   Clear
5:54 PM 68.0 °F 53.1 °F 59% 29.79 in 10.0 mi NW 11.5 mph - N/A   Clear
6:54 PM 66.9 °F 53.1 °F 61% 29.81 in 10.0 mi NW 8.1 mph - N/A   Clear
7:54 PM 64.0 °F 52.0 °F 65% 29.84 in 10.0 mi NW 6.9 mph - N/A   Clear
8:54 PM 60.1 °F 52.0 °F 75% 29.88 in 10.0 mi WNW 6.9 mph - N/A   Clear
9:54 PM 60.1 °F 52.0 °F 75% 29.90 in 10.0 mi NW 5.8 mph - N/A   Clear
10:54 PM 57.9 °F 50.0 °F 75% 29.93 in 10.0 mi Calm Calm - N/A   Clear
11:54 PM 55.9 °F 50.0 °F 80% 29.95 in 10.0 mi Calm Calm - N/A   Clear